Overview Statistics Trail Chart Weather Telemetry Raw packets
 

This is the latest recevied weather packets stored in our database for station/object ED4YAF-13. If no packets are shown the sender has not sent any weather packets the latest 10 day(s).

<< 7 8 9 10 11 12 13 >>
Time Temp. Humidity Pressure Rain* Wind** Luminosity Snow
1788405232 18.89° C 44% 1021.3 hPa - - - -
1788404331 18.89° C 43% 1021.3 hPa - - - -
1788402531 18.89° C 45% 1021.4 hPa - - - -
1788401631 18.89° C 49% 1021.6 hPa - - - -
1788400731 18.89° C 50% 1021.7 hPa - - - -
1788399832 18.89° C 49% 1021.6 hPa - - - -
1788398932 18.33° C 52% 1021.8 hPa - - - -
1788397130 18.33° C 57% 1022 hPa - - - -
1788396226 18.33° C 55% 1021.8 hPa - - - -
1788395314 18.89° C 57% 1021.8 hPa - - - -
1788394386 18.89° C 48% 1021.8 hPa - - - -
1788393475 19.44° C 40% 1021.4 hPa - - - -
1788392575 19.44° C 41% 1021.5 hPa - - - -
1788389876 19.44° C 51% 1021.6 hPa - - - -
1788388975 19.44° C 48% 1021.5 hPa - - - -
1788388072 20° C 42% 1021.2 hPa - - - -
1788387179 20° C 39% 1020.9 hPa - - - -
1788386272 20° C 39% 1020.9 hPa - - - -
1788385372 20° C 37% 1020.8 hPa - - - -
1788384479 20.56° C 36% 1020.1 hPa - - - -
1788383567 20.56° C 37% 1020 hPa - - - -
1788382667 20.56° C 38% 1020.1 hPa - - - -
1788381758 21.11° C 38% 1020 hPa - - - -
1788380858 21.11° C 38% 1019.8 hPa - - - -
1788379057 21.67° C 35% 1018.9 hPa - - - -

* Rain since midnight (hover to see other rain measurements)
** Current wind speed in m/s (hover to see current wind gust speed)